Cosmos 2263 Rocket - Orbit

View from above orbital plane
View from above orbital plane
View from above satellite
View from above satellite

Ground track
Ground track

The orbit data is extracted from the following two-line orbital elements,

1 22803U 93059B   13137.14765652  .00000009  00000-0  28267-4 0    69
2 22803 070.9891 153.1655 0015523 143.0742 217.1453 14.16619650 16979
Epoch (UTC): 17 May 2013 03:32:37
Eccentricity: 0.0015523
inclination: 70.9891°
perigee height: 825 km
apogee height: 848 km
right ascension of ascending node: 153.1655°
argument of perigee: 143.0742°
revolutions per day: 14.16619650
mean anomaly at epoch: 217.1453°
orbit number at epoch: 1697

The dashed part of the orbit path shows where the satellite is in the earth's shadow,  

Developed and maintained by Chris Peat, Heavens-Above GmbH. Please read the updated FAQ before sending e-mail. Imprint. DLR